When you browse on this site, cookies collect data to enhance your experience and personalize the content and advertising you see.
Visit our Privacy Policy to learn more. By continuing to use the site, you agree to this use of cookies and data.
  • In Romania
  • List of Countries
  • For 7 days
  • Water Temperature
  • Weather Map
  • Weather Widgets
  • user-avatar
    Login

    Hourly Weather Darwin

    Today, 3 June, Wednesday

    Time Temperature Precipitation Wind Pressure Humidity
    00:00 +24°C° 0 mm 6 mps 762 mmHg 44%
    01:00 +23°C° 0 mm 6 mps 762 mmHg 46%
    02:00 +23°C° 0 mm 6 mps 762 mmHg 49%
    03:00 +22°C° 0 mm 6 mps 761 mmHg 52%
    04:00 +21°C° 0 mm 7 mps 762 mmHg 54%
    05:00 +20°C° 0 mm 7 mps 762 mmHg 56%
    06:00 +18°C° 0 mm 7 mps 762 mmHg 58%
    07:00 +21°C° 0 mm 7 mps 762 mmHg 53%
    08:00 +23°C° 0 mm 8 mps 762 mmHg 48%
    09:00 +24°C° 0 mm 8 mps 762 mmHg 42%
    10:00 +27°C° 0 mm 7 mps 762 mmHg 37%
    11:00 +29°C° 0 mm 7 mps 762 mmHg 31%
    12:00 +32°C° 0 mm 6 mps 761 mmHg 26%
    13:00 +33°C° 0 mm 5 mps 760 mmHg 24%
    14:00 +34°C° 0 mm 4 mps 760 mmHg 22%
    15:00 +34°C° 0 mm 3 mps 759 mmHg 21%
    16:00 +31°C° 0 mm 3 mps 759 mmHg 23%
    17:00 +29°C° 0 mm 2 mps 759 mmHg 25%
    18:00 +27°C° 0 mm 2 mps 759 mmHg 28%
    19:00 +26°C° 0 mm 2 mps 760 mmHg 28%
    20:00 +25°C° 0 mm 3 mps 761 mmHg 28%
    21:00 +22°C° 0 mm 4 mps 761 mmHg 29%
    22:00 +22°C° 0 mm 5 mps 761 mmHg 31%
    23:00 +22°C° 0 mm 6 mps 761 mmHg 33%

    Tomorrow, 4 June, Thursday

    Time Temperature Precipitation Wind Pressure Humidity
    00:00 +21°C° 0 mm 7 mps 762 mmHg 34%
    01:00 +21°C° 0 mm 7 mps 761 mmHg 40%
    02:00 +20°C° 0 mm 7 mps 761 mmHg 45%
    03:00 +20°C° 0 mm 6 mps 761 mmHg 51%
    04:00 +20°C° 0 mm 7 mps 761 mmHg 56%
    05:00 +18°C° 0 mm 7 mps 761 mmHg 61%
    06:00 +18°C° 0 mm 7 mps 762 mmHg 66%
    07:00 +20°C° 0 mm 7 mps 762 mmHg 64%
    08:00 +22°C° 0 mm 7 mps 762 mmHg 62%
    09:00 +23°C° 0 mm 7 mps 762 mmHg 60%
    10:00 +26°C° 0 mm 6 mps 762 mmHg 53%
    11:00 +29°C° 0 mm 5 mps 761 mmHg 47%
    12:00 +32°C° 0 mm 5 mps 761 mmHg 41%
    13:00 +32°C° 0 mm 4 mps 760 mmHg 39%
    14:00 +33°C° 0 mm 4 mps 759 mmHg 37%
    15:00 +34°C° 0 mm 3 mps 759 mmHg 35%
    16:00 +31°C° 0 mm 3 mps 759 mmHg 39%
    17:00 +29°C° 0 mm 3 mps 759 mmHg 44%
    18:00 +27°C° 0 mm 3 mps 759 mmHg 48%
    19:00 +26°C° 0 mm 2 mps 760 mmHg 51%
    20:00 +25°C° 0 mm 2 mps 760 mmHg 53%
    21:00 +23°C° 0 mm 1 mps 761 mmHg 56%
    22:00 +22°C° 0 mm 3 mps 761 mmHg 50%
    23:00 +21°C° 0 mm 4 mps 761 mmHg 44%

    Day after tomorrow, 5 June, Friday

    Time Temperature Precipitation Wind Pressure Humidity
    00:00 +20°C° 0 mm 5 mps 761 mmHg 38%
    01:00 +20°C° 0 mm 5 mps 761 mmHg 42%
    02:00 +19°C° 0 mm 6 mps 760 mmHg 46%
    03:00 +19°C° 0 mm 6 mps 760 mmHg 50%
    04:00 +19°C° 0 mm 6 mps 760 mmHg 55%
    05:00 +17°C° 0 mm 6 mps 760 mmHg 61%
    06:00 +17°C° 0 mm 6 mps 760 mmHg 67%
    07:00 +20°C° 0 mm 6 mps 760 mmHg 63%
    08:00 +22°C° 0 mm 6 mps 761 mmHg 60%
    09:00 +24°C° 0 mm 7 mps 761 mmHg 57%
    10:00 +27°C° 0 mm 6 mps 760 mmHg 51%
    11:00 +29°C° 0 mm 5 mps 760 mmHg 46%
    12:00 +32°C° 0 mm 4 mps 760 mmHg 41%
    13:00 +33°C° 0 mm 4 mps 759 mmHg 38%
    14:00 +34°C° 0 mm 3 mps 758 mmHg 35%
    15:00 +35°C° 0 mm 3 mps 758 mmHg 32%
    16:00 +31°C° 0 mm 3 mps 758 mmHg 44%
    17:00 +28°C° 0 mm 2 mps 758 mmHg 55%
    18:00 +26°C° 0 mm 2 mps 758 mmHg 66%
    19:00 +25°C° 0 mm 2 mps 759 mmHg 70%
    20:00 +24°C° 0 mm 2 mps 759 mmHg 74%
    21:00 +23°C° 0 mm 2 mps 759 mmHg 78%
    22:00 +23°C° 0 mm 2 mps 759 mmHg 73%
    23:00 +21°C° 0 mm 3 mps 759 mmHg 68%

    6 June, Saturday

    Time Temperature Precipitation Wind Pressure Humidity
    00:00 +21°C° 0 mm 3 mps 759 mmHg 63%
    01:00 +20°C° 0 mm 4 mps 759 mmHg 58%
    02:00 +20°C° 0 mm 5 mps 759 mmHg 53%
    03:00 +19°C° 0 mm 6 mps 759 mmHg 47%
    04:00 +19°C° 0 mm 5 mps 759 mmHg 51%
    05:00 +17°C° 0 mm 5 mps 759 mmHg 54%
    06:00 +17°C° 0 mm 5 mps 759 mmHg 57%
    07:00 +20°C° 0 mm 5 mps 759 mmHg 57%
    08:00 +22°C° 0 mm 5 mps 759 mmHg 56%
    09:00 +25°C° 0 mm 5 mps 760 mmHg 56%
    10:00 +27°C° 0 mm 4 mps 759 mmHg 50%
    11:00 +30°C° 0 mm 4 mps 759 mmHg 45%
    12:00 +33°C° 0 mm 3 mps 758 mmHg 39%
    13:00 +34°C° 0 mm 3 mps 758 mmHg 38%
    14:00 +34°C° 0 mm 3 mps 757 mmHg 36%
    15:00 +35°C° 0 mm 3 mps 756 mmHg 34%
    16:00 +31°C° 0 mm 3 mps 757 mmHg 45%
    17:00 +29°C° 0 mm 2 mps 757 mmHg 56%
    18:00 +26°C° 0 mm 2 mps 757 mmHg 66%
    19:00 +26°C° 0 mm 2 mps 758 mmHg 68%
    20:00 +25°C° 0 mm 2 mps 758 mmHg 70%
    21:00 +25°C° 0 mm 2 mps 759 mmHg 73%
    22:00 +24°C° 0 mm 2 mps 759 mmHg 71%
    23:00 +24°C° 0 mm 2 mps 759 mmHg 68%

    7 June, Sunday

    Time Temperature Precipitation Wind Pressure Humidity
    00:00 +24°C° 0 mm 3 mps 758 mmHg 66%
    01:00 +24°C° 0 mm 3 mps 758 mmHg 67%
    02:00 +24°C° 0 mm 3 mps 758 mmHg 67%
    03:00 +24°C° 0 mm 3 mps 758 mmHg 67%
    04:00 +24°C° 0 mm 3 mps 758 mmHg 70%
    05:00 +23°C° 0 mm 4 mps 758 mmHg 73%
    06:00 +22°C° 0 mm 4 mps 758 mmHg 76%
    07:00 +23°C° 0 mm 4 mps 758 mmHg 73%
    08:00 +25°C° 0 mm 5 mps 759 mmHg 70%
    09:00 +27°C° 0 mm 5 mps 759 mmHg 67%
    10:00 +29°C° 0 mm 5 mps 759 mmHg 61%
    11:00 +32°C° 0 mm 4 mps 758 mmHg 55%
    12:00 +34°C° 0 mm 4 mps 758 mmHg 48%
    13:00 +34°C° 0 mm 3 mps 757 mmHg 45%
    14:00 +35°C° 0 mm 3 mps 757 mmHg 42%
    15:00 +36°C° 0 mm 3 mps 756 mmHg 39%
    16:00 +34°C° 0 mm 3 mps 756 mmHg 46%
    17:00 +31°C° 0 mm 2 mps 756 mmHg 52%
    18:00 +29°C° 0 mm 2 mps 757 mmHg 58%
    19:00 +28°C° 0 mm 2 mps 757 mmHg 62%
    20:00 +27°C° 0 mm 1 mps 758 mmHg 66%
    21:00 +26°C° 0 mm 1 mps 758 mmHg 69%
    22:00 +26°C° 0 mm 2 mps 758 mmHg 66%
    23:00 +26°C° 0 mm 3 mps 758 mmHg 64%

    8 June, Monday

    Time Temperature Precipitation Wind Pressure Humidity
    00:00 +27°C° 0 mm 4 mps 758 mmHg 61%
    01:00 +26°C° 0 mm 4 mps 758 mmHg 62%
    02:00 +26°C° 0 mm 5 mps 758 mmHg 63%
    03:00 +25°C° 0 mm 5 mps 758 mmHg 64%
    04:00 +23°C° 0 mm 5 mps 758 mmHg 66%
    05:00 +23°C° 0 mm 5 mps 758 mmHg 67%
    06:00 +22°C° 0 mm 5 mps 758 mmHg 69%
    07:00 +24°C° 0 mm 6 mps 759 mmHg 63%
    08:00 +26°C° 0 mm 6 mps 759 mmHg 57%
    09:00 +28°C° 0 mm 6 mps 760 mmHg 51%
    10:00 +30°C° 0 mm 5 mps 759 mmHg 46%
    11:00 +33°C° 0 mm 4 mps 759 mmHg 42%
    12:00 +35°C° 0 mm 3 mps 758 mmHg 37%
    13:00 +35°C° 0 mm 3 mps 758 mmHg 36%
    14:00 +36°C° 0 mm 3 mps 757 mmHg 35%
    15:00 +36°C° 0 mm 3 mps 756 mmHg 33%
    16:00 +34°C° 0 mm 3 mps 757 mmHg 43%
    17:00 +30°C° 0 mm 2 mps 757 mmHg 52%
    18:00 +28°C° 0 mm 2 mps 757 mmHg 62%
    19:00 +27°C° 0 mm 2 mps 758 mmHg 65%
    20:00 +27°C° 0 mm 2 mps 758 mmHg 69%
    21:00 +26°C° 0 mm 2 mps 759 mmHg 72%
    22:00 +26°C° 0 mm 2 mps 759 mmHg 71%
    23:00 +25°C° 0 mm 2 mps 759 mmHg 69%
    Show more